This is the latest recevied weather packets stored in our database for station/object N9OJR. If no packets are shown the sender has not sent any weather packets the latest 10 day(s).
| Time | Temp. | Humidity | Pressure | Rain* | Wind** | Luminosity | Snow |
|---|---|---|---|---|---|---|---|
| 1778072885 | 7.22° C | 99% | 1006.4 hPa | 0 mm | - | 140 W/m² | - |
| 1778072581 | 7.22° C | 99% | 1006.5 hPa | 0 mm | - | 86 W/m² | - |
| 1778072279 | 7.22° C | 99% | 1005.8 hPa | 0 mm | - | 113 W/m² | - |
| 1778071977 | 7.22° C | 99% | 1006 hPa | 0 mm | - | 81 W/m² | - |
| 1778071675 | 7.22° C | 99% | 1006 hPa | 0 mm | - | 102 W/m² | - |
| 1778071372 | 7.22° C | 99% | 1006.2 hPa | 0 mm | - | 96 W/m² | - |
| 1778071070 | 7.22° C | 99% | 1005.8 hPa | 0 mm | - | 94 W/m² | - |
| 1778070768 | 7.22° C | 99% | 1005.7 hPa | 0 mm | - | 75 W/m² | - |
| 1778070465 | 7.22° C | 99% | 1005.9 hPa | 0 mm | - | 100 W/m² | - |
| 1778070162 | 7.22° C | 99% | 1005.8 hPa | 0 mm | - | 77 W/m² | - |
| 1778069860 | 7.22° C | 99% | 1005.3 hPa | 0 mm | - | 88 W/m² | - |
| 1778069556 | 7.22° C | 99% | 1005.6 hPa | 0 mm | - | 184 W/m² | - |
| 1778069253 | 6.67° C | 99% | 1005.4 hPa | 0 mm | - | 83 W/m² | - |
| 1778068951 | 6.67° C | 99% | 1005.5 hPa | 0 mm | - | 44 W/m² | - |
| 1778068649 | 6.67° C | 99% | 1005.2 hPa | 0 mm | - | 37 W/m² | - |
| 1778068347 | 6.67° C | 99% | 1005.3 hPa | 0 mm | - | 30 W/m² | - |
| 1778068045 | 7.22° C | 99% | 1005.1 hPa | 0 mm | - | 27 W/m² | - |
| 1778067742 | 6.67° C | 99% | 1005.6 hPa | 0 mm | - | 30 W/m² | - |
| 1778067440 | 6.67° C | 99% | 1005.6 hPa | 0 mm | - | 20 W/m² | - |
| 1778067137 | 7.22° C | 99% | 1005.8 hPa | 0 mm | - | 12 W/m² | - |
| 1778066834 | 7.22° C | 99% | 1005.6 hPa | 0 mm | - | 9 W/m² | - |
| 1778066532 | 6.67° C | 99% | 1005.2 hPa | 0 mm | - | 14 W/m² | - |
| 1778066229 | 7.22° C | 99% | 1005.3 hPa | 0 mm | - | 10 W/m² | - |
| 1778065927 | 7.22° C | 99% | 1004.9 hPa | 0 mm | - | 6 W/m² | - |
| 1778065623 | 7.22° C | 99% | 1004.8 hPa | 0 mm | - | 3 W/m² | - |
* Rain latest hour (hover to see other rain measurements)
** Current wind speed in m/s (hover to see current wind gust speed)